PulseSat

PulseSat

COSMOS 2477 (745)

Last updated on Jan. 18, 2019, 3 a.m. UTC

1 37868U 11064B   19016.97229659  .00000071  00000-0  00000+0 0  9997
2 37868  64.5051 164.7097 0014499 236.8265  18.5286  2.13101730 56052
UTC
Height (km)
Latitude
Longitude
Inclination
Orbital Period

Next 30 passes for location: Hong Kong

Rise time Rise Azimuth (degrees) Set time Set Azimuth (degrees) Duration Max altitude (degrees)

No matching passes for this satellites

PulseSat

PulseSat is the new satellites software and hardware trackering solution by Pulsely.
Satellite Two Line Element Set source: US Air Force Space Command

Download PulseSat for iOS
© 2017 Pulsely Limited